Location: Buchberg
(46.9333°N, 15.8500°E)
Time: 19:37:15
(UTC+00:00)

Cosmos 1697 Rocket - Pass Details

Date: 14 July 2020
Orbit: 834 x 842 km, 71.0° (Epoch: 06 August)

Event Time Altitude Azimuth Distance (km) Brightness Sun altitude
Rises 02:09:29 0° 323° (NW) 3,396 6.0 -9.5°
Reaches altitude 10° 02:12:19 10° 311° (NW) 2,455 5.1 -9.2°
Maximum altitude 02:16:48 25° 258° (WSW) 1,625 3.7 -8.7°
Drops below altitude 10° 02:21:15 10° 204° (SSW) 2,438 4.5 -8.1°
Enters shadow 02:22:18 - 199° (SSW) 2,768 4.8 -8.0°
